,,Stat6,,Stat2,,Stat8,,Stat9,,Stat10,,Wind1,,Wind1,
time,status,PA1M_AVG,status,PR1M_SUM,status,RH1M_AVG,status,SR1M_AVG,status,TA1M_AVG,status,W1dAve1m,status,W1sAve1m,
2004-02-11, 00:00:01,VALID,920.217,VALID,0,VALID,87.6682,VALID,-0.0679233,VALID,20.6189,VALID,137,VALID,1.05167,
2004-02-11, 00:01:00,VALID,920.188,VALID,0,VALID,87.3859,VALID,-0.0169808,VALID,20.6418,VALID,138,VALID,1.55323,
2004-02-11, 00:02:00,VALID,920.183,VALID,0,VALID,87.7013,VALID,-0.0169808,VALID,20.6574,VALID,97,VALID,1.14935,
2004-02-11, 00:03:00,VALID,920.157,VALID,0,VALID,87.5805,VALID,-0.0339617,VALID,20.6192,VALID,125,VALID,1.36641,
2004-02-11, 00:04:01,VALID,920.139,VALID,0,VALID,87.522,VALID,-0.0339617,VALID,20.6194,VALID,125,VALID,1.57315,
2004-02-11, 00:05:00,VALID,920.131,VALID,0,VALID,87.9213,VALID,-0.0679233,VALID,20.5963,VALID,125,VALID,1.55316,
2004-02-11, 00:06:01,VALID,920.115,VALID,0,VALID,88.285,VALID,-0.0679233,VALID,20.5675,VALID,136,VALID,1.65062,
2004-02-11, 00:07:00,VALID,920.082,VALID,0,VALID,88.4808,VALID,-0.0509425,VALID,20.568,VALID,139,VALID,1.86555,
2004-02-11, 00:08:00,VALID,920.057,VALID,0,VALID,88.5151,VALID,-0.0849042,VALID,20.571,VALID,142,VALID,1.53594,
2004-02-11, 00:09:01,VALID,920.051,VALID,0,VALID,88.7669,VALID,-0.0339617,VALID,20.5677,VALID,138,VALID,1.49291,
2004-02-11, 00:10:00,VALID,920.054,VALID,0,VALID,88.9538,VALID,-0.0679233,VALID,20.5252,VALID,123,VALID,1.74619,
2004-02-11, 00:11:01,VALID,920.044,VALID,0,VALID,89.3289,VALID,-0.0679233,VALID,20.4873,VALID,131,VALID,1.89862,
2004-02-11, 00:12:01,VALID,920.038,VALID,0,VALID,89.4421,VALID,-0.0679233,VALID,20.4512,VALID,127,VALID,1.40469,
2004-02-11, 00:13:01,VALID,920.035,VALID,0,VALID,89.6138,VALID,-0.0849042,VALID,20.4227,VALID,133,VALID,1.36504,
2004-02-11, 00:14:01,VALID,920.01,VALID,0,VALID,89.8439,VALID,-0.0509425,VALID,20.3869,VALID,131,VALID,1.70871,
2004-02-11, 00:15:00,VALID,920.01,VALID,0,VALID,89.8668,VALID,-0.0679233,VALID,20.3742,VALID,119,VALID,1.32298,
2004-02-11, 00:16:00,VALID,920.025,VALID,0,VALID,90.247,VALID,-0.0679233,VALID,20.3228,VALID,109,VALID,1.04127,
2004-02-11, 00:17:00,VALID,920.016,VALID,0,VALID,90.6323,VALID,-0.101885,VALID,20.245,VALID,118,VALID,1.0612,
2004-02-11, 00:18:00,VALID,920.022,VALID,0,VALID,90.9185,VALID,-0.0849042,VALID,20.1963,VALID,109,VALID,0.965625,
2004-02-11, 00:19:00,VALID,920.037,VALID,0,VALID,91.2262,VALID,-0.0679233,VALID,20.1449,VALID,122,VALID,1.16883,
2004-02-11, 00:20:00,VALID,920.059,VALID,0,VALID,91.3546,VALID,-0.0679233,VALID,20.1228,VALID,131,VALID,1.38434,
2004-02-11, 00:21:01,VALID,920.081,VALID,0,VALID,91.5581,VALID,-0.101885,VALID,20.1032,VALID,137,VALID,1.51507,
2004-02-11, 00:22:00,VALID,920.096,VALID,0,VALID,91.6865,VALID,-0.0849042,VALID,20.0738,VALID,136,VALID,1.16711,
2004-02-11, 00:23:00,VALID,920.104,VALID,0,VALID,91.9497,VALID,-0.0849042,VALID,20.0577,VALID,141,VALID,1.5957,
2004-02-11, 00:24:01,VALID,920.113,VALID,0,VALID,92.0362,VALID,-0.0849042,VALID,20.0674,VALID,145,VALID,1.70541,
2004-02-11, 00:25:00,VALID,920.123,VALID,0,VALID,92.0604,VALID,-0.0679233,VALID,20.0773,VALID,139,VALID,1.50611,
2004-02-11, 00:26:00,VALID,920.129,VALID,0,VALID,92.0082,VALID,-0.0849042,VALID,20.0741,VALID,128,VALID,1.17351,
2004-02-11, 00:27:01,VALID,920.122,VALID,0,VALID,92.1278,VALID,-0.0509425,VALID,20.0577,VALID,141,VALID,1.6588,
2004-02-11, 00:28:00,VALID,920.121,VALID,0,VALID,92.1328,VALID,-0.0849042,VALID,20.0448,VALID,122,VALID,1.74328,
2004-02-11, 00:29:00,VALID,920.103,VALID,0,VALID,92.1875,VALID,0.0339617,VALID,20.0368,VALID,135,VALID,1.57489,
2004-02-11, 00:30:00,VALID,920.103,VALID,0,VALID,92.26,VALID,0.0509425,VALID,20.0172,VALID,134,VALID,2.0694,
2004-02-11, 00:31:00,VALID,920.099,VALID,0,VALID,92.1519,VALID,0.0339617,VALID,20.0172,VALID,123,VALID,2.004,
2004-02-11, 00:32:01,VALID,920.113,VALID,0,VALID,92.26,VALID,0.0679233,VALID,20.0072,VALID,134,VALID,1.76753,
2004-02-11, 00:33:01,VALID,920.121,VALID,0,VALID,92.321,VALID,0.0169808,VALID,19.9919,VALID,121,VALID,1.76339,
2004-02-11, 00:34:00,VALID,920.123,VALID,0,VALID,92.4876,VALID,0.0509425,VALID,19.9653,VALID,123,VALID,1.70403,
2004-02-11, 00:35:00,VALID,920.121,VALID,0,VALID,92.5893,VALID,0.0509425,VALID,19.9427,VALID,128,VALID,1.88281,
2004-02-11, 00:36:01,VALID,920.108,VALID,0,VALID,92.5728,VALID,0.0169808,VALID,19.9394,VALID,134,VALID,1.81364,
2004-02-11, 00:37:01,VALID,920.108,VALID,0,VALID,92.405,VALID,0.0339617,VALID,19.9526,VALID,130,VALID,1.59712,
2004-02-11, 00:38:00,VALID,920.121,VALID,0,VALID,92.2536,VALID,0.0339617,VALID,19.9593,VALID,115,VALID,1.49419,
2004-02-11, 00:39:00,VALID,920.123,VALID,0,VALID,92.3337,VALID,0.0339617,VALID,19.9265,VALID,122,VALID,1.38821,
2004-02-11, 00:40:01,VALID,920.135,VALID,0,VALID,92.4113,VALID,0.0509425,VALID,19.9141,VALID,113,VALID,1.29743,
2004-02-11, 00:41:00,VALID,920.136,VALID,0,VALID,92.4838,VALID,0.0339617,VALID,19.888,VALID,122,VALID,1.49276,
2004-02-11, 00:42:01,VALID,920.136,VALID,0,VALID,92.5525,VALID,0.0169808,VALID,19.885,VALID,132,VALID,1.8842,
2004-02-11, 00:43:00,VALID,920.123,VALID,0,VALID,92.5308,VALID,0,VALID,19.8883,VALID,133,VALID,1.49609,
2004-02-11, 00:44:00,VALID,920.115,VALID,0,VALID,92.4329,VALID,0.0169808,VALID,19.9049,VALID,144,VALID,1.85671,
2004-02-11, 00:45:01,VALID,920.109,VALID,0,VALID,92.3045,VALID,0.0169808,VALID,19.9402,VALID,137,VALID,1.45703,
2004-02-11, 00:46:01,VALID,920.11,VALID,0,VALID,92.377,VALID,0,VALID,19.937,VALID,144,VALID,1.50959,
2004-02-11, 00:47:01,VALID,920.11,VALID,0,VALID,92.3795,VALID,0.0169808,VALID,19.9402,VALID,134,VALID,1.52743,
2004-02-11, 00:48:00,VALID,920.104,VALID,0,VALID,92.2511,VALID,0.0169808,VALID,19.9399,VALID,136,VALID,1.52958,
2004-02-11, 00:49:00,VALID,920.104,VALID,0,VALID,92.2244,VALID,0,VALID,19.9593,VALID,133,VALID,1.69475,
2004-02-11, 00:50:00,VALID,920.11,VALID,0,VALID,92.1837,VALID,0,VALID,19.9432,VALID,136,VALID,1.65377,
2004-02-11, 00:51:00,VALID,920.106,VALID,0,VALID,92.1494,VALID,0.0169808,VALID,19.9399,VALID,128,VALID,1.3452,
2004-02-11, 00:52:01,VALID,920.1,VALID,0,VALID,92.2905,VALID,0,VALID,19.9305,VALID,133,VALID,1.81907,
2004-02-11, 00:53:00,VALID,920.107,VALID,0,VALID,92.3032,VALID,0.0169808,VALID,19.9173,VALID,134,VALID,1.64631,
2004-02-11, 00:54:00,VALID,920.104,VALID,0,VALID,92.1901,VALID,0.0169808,VALID,19.9243,VALID,125,VALID,1.60476,
2004-02-11, 00:55:01,VALID,920.083,VALID,0,VALID,92.1379,VALID,0.0169808,VALID,19.9111,VALID,108,VALID,1.48084,
2004-02-11, 00:56:01,VALID,920.059,VALID,0,VALID,92.3134,VALID,0.0169808,VALID,19.8821,VALID,115,VALID,1.63449,
2004-02-11, 00:57:01,VALID,920.043,VALID,0,VALID,92.2473,VALID,0,VALID,19.8627,VALID,116,VALID,1.64719,
2004-02-11, 00:58:01,VALID,919.993,VALID,0,VALID,92.2981,VALID,0,VALID,19.8565,VALID,113,VALID,1.88188,
2004-02-11, 00:59:01,VALID,919.961,VALID,0,VALID,92.1099,VALID,0,VALID,19.8595,VALID,126,VALID,1.66082,
2004-02-11, 01:00:01,VALID,919.917,VALID,0,VALID,91.9357,VALID,0.0339617,VALID,19.898,VALID,126,VALID,1.71504,
2004-02-11, 01:01:00,VALID,919.891,VALID,0,VALID,91.7514,VALID,0.0169808,VALID,19.937,VALID,127,VALID,1.52604,
2004-02-11, 01:02:00,VALID,919.874,VALID,0,VALID,91.6369,VALID,0.0169808,VALID,19.9593,VALID,110,VALID,1.44494,
2004-02-11, 01:03:00,VALID,919.857,VALID,0,VALID,91.7488,VALID,0,VALID,19.9601,VALID,110,VALID,1.4401,
2004-02-11, 01:04:01,VALID,919.873,VALID,0,VALID,91.9218,VALID,0.0169808,VALID,19.9176,VALID,114,VALID,1.35714,
2004-02-11, 01:05:00,VALID,919.884,VALID,0,VALID,92.0718,VALID,0.0169808,VALID,19.892,VALID,94,VALID,1.19949,
2004-02-11, 01:06:01,VALID,919.914,VALID,0,VALID,92.2117,VALID,0,VALID,19.8664,VALID,101,VALID,1.06421,
2004-02-11, 01:07:00,VALID,919.924,VALID,0,VALID,92.4011,VALID,0,VALID,19.8436,VALID,105,VALID,1.03979,
2004-02-11, 01:08:00,VALID,919.93,VALID,0,VALID,92.452,VALID,0.0169808,VALID,19.821,VALID,104,VALID,1.1571,
2004-02-11, 01:09:00,VALID,919.933,VALID,0,VALID,92.4088,VALID,0,VALID,19.8376,VALID,112,VALID,1.24442,
2004-02-11, 01:10:01,VALID,919.905,VALID,0,VALID,92.2753,VALID,-0.0169808,VALID,19.8274,VALID,129,VALID,1.32999,
2004-02-11, 01:11:00,VALID,919.869,VALID,0,VALID,92.1697,VALID,0.0339617,VALID,19.8336,VALID,116,VALID,1.24037,
2004-02-11, 01:12:01,VALID,919.844,VALID,0,VALID,92.3414,VALID,0.0169808,VALID,19.8408,VALID,78,VALID,1.17862,
2004-02-11, 01:13:00,VALID,919.832,VALID,0,VALID,92.6262,VALID,0,VALID,19.8083,VALID,91,VALID,1.09696,
2004-02-11, 01:14:00,VALID,919.83,VALID,0,VALID,92.5728,VALID,-0.0169808,VALID,19.7986,VALID,87,VALID,1.06007,
2004-02-11, 01:15:01,VALID,919.825,VALID,0,VALID,92.6796,VALID,0.0169808,VALID,19.7919,VALID,100,VALID,1.20349,
2004-02-11, 01:16:00,VALID,919.834,VALID,0,VALID,92.7,VALID,0,VALID,19.7854,VALID,118,VALID,1.30625,
2004-02-11, 01:17:00,VALID,919.851,VALID,0,VALID,92.7356,VALID,-0.0169808,VALID,19.7725,VALID,120,VALID,1.40425,
2004-02-11, 01:18:01,VALID,919.863,VALID,0,VALID,92.733,VALID,-0.0169808,VALID,19.783,VALID,123,VALID,1.67645,
2004-02-11, 01:19:00,VALID,919.887,VALID,0,VALID,92.7903,VALID,0,VALID,19.773,VALID,119,VALID,1.55486,
2004-02-11, 01:20:01,VALID,919.896,VALID,0,VALID,92.9161,VALID,-0.0169808,VALID,19.7566,VALID,122,VALID,1.3891,
2004-02-11, 01:21:01,VALID,919.896,VALID,0,VALID,92.925,VALID,0,VALID,19.7666,VALID,130,VALID,1.16313,
2004-02-11, 01:22:00,VALID,919.884,VALID,0,VALID,92.9441,VALID,-0.0169808,VALID,19.7633,VALID,142,VALID,0.997275,
2004-02-11, 01:23:00,VALID,919.881,VALID,0,VALID,93.0382,VALID,0,VALID,19.7502,VALID,132,VALID,1.01992,
2004-02-11, 01:24:01,VALID,919.871,VALID,0,VALID,93.2328,VALID,0,VALID,19.7216,VALID,102,VALID,1.20982,
2004-02-11, 01:25:01,VALID,919.862,VALID,0,VALID,93.6575,VALID,0,VALID,19.656,VALID,100,VALID,0.956473,
2004-02-11, 01:26:01,VALID,919.853,VALID,0,VALID,93.9856,VALID,-0.0169808,VALID,19.6148,VALID,108,VALID,1.04967,
2004-02-11, 01:27:01,VALID,919.86,VALID,0,VALID,94.3899,VALID,0,VALID,19.5696,VALID,133,VALID,1.3192,
2004-02-11, 01:28:00,VALID,919.849,VALID,0,VALID,94.5616,VALID,-0.0169808,VALID,19.5438,VALID,131,VALID,1.41868,
2004-02-11, 01:29:00,VALID,919.84,VALID,0,VALID,94.6773,VALID,-0.0169808,VALID,19.5281,VALID,141,VALID,1.36928,
2004-02-11, 01:30:01,VALID,919.841,VALID,0,VALID,94.6684,VALID,0.0169808,VALID,19.5219,VALID,127,VALID,1.23801,
2004-02-11, 01:31:00,VALID,919.832,VALID,0,VALID,94.7091,VALID,0,VALID,19.4797,VALID,129,VALID,1.18676,
2004-02-11, 01:32:01,VALID,919.822,VALID,0,VALID,94.9011,VALID,0,VALID,19.437,VALID,131,VALID,0.956836,
2004-02-11, 01:33:01,VALID,919.796,VALID,0,VALID,95.083,VALID,0,VALID,19.4248,VALID,130,VALID,1.29705,
2004-02-11, 01:34:01,VALID,919.787,VALID,0,VALID,95.1961,VALID,0,VALID,19.4019,VALID,130,VALID,1.21413,
2004-02-11, 01:35:00,VALID,919.783,VALID,0,VALID,95.3029,VALID,0,VALID,19.3699,VALID,124,VALID,1.07969,
2004-02-11, 01:36:01,VALID,919.776,VALID,0,VALID,95.3462,VALID,0.0169808,VALID,19.3669,VALID,115,VALID,1.03069,
2004-02-11, 01:37:01,VALID,919.769,VALID,0,VALID,95.3589,VALID,0,VALID,19.3341,VALID,99,VALID,0.936942,
2004-02-11, 01:38:01,VALID,919.76,VALID,0,VALID,95.4873,VALID,0,VALID,19.3185,VALID,98,VALID,0.988542,
2004-02-11, 01:39:01,VALID,919.734,VALID,0,VALID,95.6921,VALID,-0.0169808,VALID,19.2986,VALID,127,VALID,1.68914,
2004-02-11, 01:40:01,VALID,919.739,VALID,0,VALID,95.6119,VALID,0,VALID,19.3309,VALID,131,VALID,1.6436,
2004-02-11, 01:41:00,VALID,919.743,VALID,0,VALID,95.3653,VALID,0.0169808,VALID,19.3798,VALID,134,VALID,1.27707,
2004-02-11, 01:42:01,VALID,919.725,VALID,0,VALID,95.2038,VALID,0,VALID,19.4089,VALID,133,VALID,1.29433,
2004-02-11, 01:43:01,VALID,919.719,VALID,0,VALID,95.0563,VALID,0,VALID,19.4441,VALID,139,VALID,1.26858,
2004-02-11, 01:44:01,VALID,919.714,VALID,0,VALID,94.9367,VALID,-0.0169808,VALID,19.4635,VALID,141,VALID,1.12824,
2004-02-11, 01:45:01,VALID,919.698,VALID,0,VALID,94.8541,VALID,0,VALID,19.4764,VALID,140,VALID,1.06771,
2004-02-11, 01:46:01,VALID,919.679,VALID,0,VALID,94.7943,VALID,0,VALID,19.5025,VALID,152,VALID,1.34877,
2004-02-11, 01:47:01,VALID,919.666,VALID,0,VALID,94.6354,VALID,0,VALID,19.5283,VALID,140,VALID,1.12138,
2004-02-11, 01:48:01,VALID,919.64,VALID,0,VALID,94.5324,VALID,0,VALID,19.548,VALID,138,VALID,1.30895,
2004-02-11, 01:49:00,VALID,919.626,VALID,0,VALID,94.4561,VALID,-0.0169808,VALID,19.5537,VALID,124,VALID,1.50418,
2004-02-11, 01:50:01,VALID,919.628,VALID,0,VALID,94.3098,VALID,0,VALID,19.5567,VALID,129,VALID,1.58368,
2004-02-11, 01:51:01,VALID,919.617,VALID,0,VALID,94.1496,VALID,0,VALID,19.5736,VALID,127,VALID,1.17988,
2004-02-11, 01:52:01,VALID,919.623,VALID,0,VALID,94.1127,VALID,0,VALID,19.5703,VALID,116,VALID,1.20103,
2004-02-11, 01:53:01,VALID,919.614,VALID,0,VALID,94.0847,VALID,0,VALID,19.5539,VALID,113,VALID,1.03995,
2004-02-11, 01:54:01,VALID,919.597,VALID,0,VALID,94.278,VALID,0,VALID,19.5539,VALID,129,VALID,1.2407,
2004-02-11, 01:55:01,VALID,919.587,VALID,0,VALID,94.1089,VALID,0,VALID,19.5609,VALID,110,VALID,1.12173,
2004-02-11, 01:56:01,VALID,919.566,VALID,0,VALID,94.245,VALID,0,VALID,19.5447,VALID,109,VALID,0.895008,
2004-02-11, 01:57:01,VALID,919.551,VALID,0,VALID,94.4001,VALID,0,VALID,19.5383,VALID,146,VALID,1.06978,
2004-02-11, 01:58:01,VALID,919.549,VALID,0,VALID,94.409,VALID,-0.0339617,VALID,19.5418,VALID,149,VALID,1.0373,
2004-02-11, 01:59:01,VALID,919.557,VALID,0,VALID,94.3531,VALID,-0.0169808,VALID,19.5378,VALID,139,VALID,1.11719,
2004-02-11, 02:00:01,VALID,919.557,VALID,0,VALID,94.259,VALID,0,VALID,19.5477,VALID,162,VALID,0.532924,
2004-02-11, 02:01:01,VALID,919.55,VALID,0,VALID,94.2323,VALID,0,VALID,19.5375,VALID,134,VALID,0.428819,
2004-02-11, 02:02:01,VALID,919.544,VALID,0,VALID,94.4472,VALID,0,VALID,19.5219,VALID,148,VALID,1.06623,
2004-02-11, 02:03:01,VALID,919.531,VALID,0,VALID,94.4268,VALID,0.0169808,VALID,19.5157,VALID,119,VALID,1.36934,
2004-02-11, 02:04:01,VALID,919.52,VALID,0,VALID,94.4255,VALID,-0.0169808,VALID,19.4931,VALID,116,VALID,1.13839,
2004-02-11, 02:05:01,VALID,919.497,VALID,0,VALID,94.4751,VALID,0,VALID,19.4767,VALID,102,VALID,0.830966,
2004-02-11, 02:06:01,VALID,919.493,VALID,0,VALID,94.6354,VALID,0,VALID,19.4474,VALID,96,VALID,1.10901,
2004-02-11, 02:07:01,VALID,919.477,VALID,0,VALID,94.7523,VALID,0,VALID,19.4345,VALID,115,VALID,1.08866,
2004-02-11, 02:08:01,VALID,919.466,VALID,0,VALID,94.8057,VALID,0,VALID,19.4123,VALID,114,VALID,0.795015,
2004-02-11, 02:09:01,VALID,919.475,VALID,0,VALID,94.91,VALID,0.0169808,VALID,19.4022,VALID,119,VALID,1.18182,
2004-02-11, 02:10:01,VALID,919.467,VALID,0,VALID,94.8439,VALID,0,VALID,19.4084,VALID,119,VALID,1.08067,
2004-02-11, 02:11:01,VALID,919.481,VALID,0,VALID,94.9164,VALID,0,VALID,19.4158,VALID,134,VALID,1.09877,
2004-02-11, 02:12:01,VALID,919.499,VALID,0,VALID,94.8871,VALID,0,VALID,19.4056,VALID,136,VALID,1.14046,
2004-02-11, 02:13:01,VALID,919.498,VALID,0,VALID,94.8172,VALID,0,VALID,19.4188,VALID,142,VALID,1.44023,
2004-02-11, 02:14:01,VALID,919.503,VALID,0,VALID,94.8159,VALID,-0.0169808,VALID,19.428,VALID,144,VALID,1.22563,
2004-02-11, 02:15:01,VALID,919.503,VALID,0,VALID,94.8859,VALID,0,VALID,19.4451,VALID,149,VALID,1.11458,
2004-02-11, 02:16:01,VALID,919.506,VALID,0,VALID,94.9672,VALID,0,VALID,19.4474,VALID,145,VALID,1.8016,
2004-02-11, 02:17:00,VALID,919.518,VALID,0,VALID,94.8871,VALID,0,VALID,19.4571,VALID,141,VALID,1.38653,
2004-02-11, 02:18:00,VALID,919.521,VALID,0,VALID,94.8935,VALID,0,VALID,19.4541,VALID,130,VALID,1.80171,
2004-02-11, 02:19:00,VALID,919.526,VALID,0,VALID,94.7345,VALID,0,VALID,19.4563,VALID,133,VALID,1.94956,
2004-02-11, 02:20:00,VALID,919.53,VALID,0,VALID,94.5781,VALID,0,VALID,19.5055,VALID,128,VALID,1.6048,
2004-02-11, 02:21:00,VALID,919.524,VALID,0,VALID,94.5209,VALID,0,VALID,19.509,VALID,123,VALID,1.79707,
2004-02-11, 02:22:00,VALID,919.512,VALID,0,VALID,94.3378,VALID,-0.0169808,VALID,19.538,VALID,135,VALID,1.61879,
2004-02-11, 02:23:00,VALID,919.509,VALID,0,VALID,94.128,VALID,0,VALID,19.5673,VALID,130,VALID,1.78367,
2004-02-11, 02:24:00,VALID,919.502,VALID,0,VALID,93.9016,VALID,-0.0339617,VALID,19.5803,VALID,102,VALID,1.33371,
2004-02-11, 02:25:00,VALID,919.505,VALID,0,VALID,93.9856,VALID,0,VALID,19.5701,VALID,116,VALID,1.49237,
2004-02-11, 02:26:00,VALID,919.491,VALID,0,VALID,94.0606,VALID,0,VALID,19.5803,VALID,120,VALID,1.05105,
2004-02-11, 02:27:00,VALID,919.484,VALID,0,VALID,94.2183,VALID,0,VALID,19.5773,VALID,121,VALID,1.62383,
2004-02-11, 02:28:00,VALID,919.49,VALID,0,VALID,94.2539,VALID,0,VALID,19.5604,VALID,123,VALID,1.47496,
2004-02-11, 02:29:00,VALID,919.472,VALID,0,VALID,94.3353,VALID,0,VALID,19.5542,VALID,123,VALID,1.86719,
2004-02-11, 02:30:00,VALID,919.475,VALID,0,VALID,94.3569,VALID,0,VALID,19.5577,VALID,125,VALID,1.87109,
2004-02-11, 02:31:00,VALID,919.477,VALID,0,VALID,94.2984,VALID,0,VALID,19.5639,VALID,120,VALID,1.80122,
2004-02-11, 02:32:00,VALID,919.483,VALID,0,VALID,94.3365,VALID,0,VALID,19.5807,VALID,127,VALID,1.74201,
2004-02-11, 02:33:00,VALID,919.485,VALID,0,VALID,94.3238,VALID,0,VALID,19.5733,VALID,132,VALID,1.68405,
2004-02-11, 02:34:00,VALID,919.485,VALID,0,VALID,94.3391,VALID,0,VALID,19.5832,VALID,128,VALID,1.58594,
2004-02-11, 02:35:00,VALID,919.486,VALID,0,VALID,94.2895,VALID,0,VALID,19.5733,VALID,108,VALID,1.47198,
2004-02-11, 02:36:00,VALID,919.472,VALID,0,VALID,94.3505,VALID,0.0339617,VALID,19.5671,VALID,119,VALID,1.60309,
2004-02-11, 02:37:00,VALID,919.456,VALID,0,VALID,94.4726,VALID,0,VALID,19.5572,VALID,131,VALID,1.4974,
2004-02-11, 02:38:00,VALID,919.425,VALID,0,VALID,94.5018,VALID,0.0169808,VALID,19.5442,VALID,127,VALID,1.49089,
2004-02-11, 02:39:00,VALID,919.403,VALID,0,VALID,94.4179,VALID,0,VALID,19.5572,VALID,120,VALID,1.49372,
2004-02-11, 02:40:00,VALID,919.388,VALID,0,VALID,94.367,VALID,0,VALID,19.577,VALID,125,VALID,1.51336,
2004-02-11, 02:41:00,VALID,919.373,VALID,0,VALID,94.3658,VALID,0.0339617,VALID,19.5673,VALID,116,VALID,1.52544,
2004-02-11, 02:42:00,VALID,919.366,VALID,0,VALID,94.3531,VALID,0,VALID,19.5641,VALID,130,VALID,1.38033,
2004-02-11, 02:43:00,VALID,919.366,VALID,0,VALID,94.4599,VALID,0,VALID,19.5475,VALID,131,VALID,1.64414,
2004-02-11, 02:44:00,VALID,919.378,VALID,0,VALID,94.4014,VALID,0,VALID,19.5577,VALID,120,VALID,1.63702,
2004-02-11, 02:45:00,VALID,919.376,VALID,0,VALID,94.3874,VALID,0,VALID,19.5505,VALID,126,VALID,1.78445,
2004-02-11, 02:46:00,VALID,919.379,VALID,0,VALID,94.3467,VALID,-0.0169808,VALID,19.5676,VALID,123,VALID,1.39989,
2004-02-11, 02:47:00,VALID,919.356,VALID,0,VALID,94.2984,VALID,-0.0169808,VALID,19.5706,VALID,120,VALID,1.58739,
2004-02-11, 02:48:00,VALID,919.352,VALID,0,VALID,94.264,VALID,0.0339617,VALID,19.5736,VALID,121,VALID,1.26451,
2004-02-11, 02:49:00,VALID,919.342,VALID,0,VALID,94.2017,VALID,0,VALID,19.5701,VALID,113,VALID,1.87333,
2004-02-11, 02:50:00,VALID,919.324,VALID,0,VALID,94.1445,VALID,0.0169808,VALID,19.5728,VALID,105,VALID,1.57422,
2004-02-11, 02:51:00,VALID,919.316,VALID,0,VALID,94.1115,VALID,0,VALID,19.583,VALID,108,VALID,1.45675,
2004-02-11, 02:52:00,VALID,919.309,VALID,0,VALID,94.1852,VALID,0,VALID,19.5666,VALID,113,VALID,1.53069,
2004-02-11, 02:53:00,VALID,919.314,VALID,0,VALID,94.1521,VALID,-0.0169808,VALID,19.5765,VALID,118,VALID,1.69727,
2004-02-11, 02:54:00,VALID,919.317,VALID,0,VALID,94.1318,VALID,-0.0169808,VALID,19.5768,VALID,99,VALID,1.25114,
2004-02-11, 02:55:00,VALID,919.304,VALID,0,VALID,94.1547,VALID,0.0169808,VALID,19.5733,VALID,108,VALID,1.15589,
2004-02-11, 02:56:00,VALID,919.313,VALID,0,VALID,94.1788,VALID,0.0169808,VALID,19.5765,VALID,120,VALID,1.42783,
2004-02-11, 02:57:00,VALID,919.341,VALID,0,VALID,94.2132,VALID,0.0169808,VALID,19.5574,VALID,110,VALID,1.21693,
2004-02-11, 02:58:00,VALID,919.358,VALID,0,VALID,94.306,VALID,0,VALID,19.5251,VALID,108,VALID,1.01758,
2004-02-11, 02:59:00,VALID,919.361,VALID,0,VALID,94.4764,VALID,0,VALID,19.5187,VALID,109,VALID,1.32504,
2004-02-11, 03:00:00,VALID,919.376,VALID,0,VALID,94.4726,VALID,0.0169808,VALID,19.509,VALID,111,VALID,0.824033,
2004-02-11, 03:01:00,VALID,919.369,VALID,0,VALID,94.5324,VALID,0.0339617,VALID,19.5087,VALID,114,VALID,0.824128,
2004-02-11, 03:02:00,VALID,919.37,VALID,0,VALID,94.5451,VALID,0,VALID,19.5055,VALID,116,VALID,1.10449,
2004-02-11, 03:03:00,VALID,919.38,VALID,0,VALID,94.5616,VALID,0,VALID,19.512,VALID,122,VALID,1.04033,
2004-02-11, 03:04:00,VALID,919.367,VALID,0,VALID,94.4599,VALID,0,VALID,19.5283,VALID,110,VALID,1.22638,
2004-02-11, 03:05:00,VALID,919.381,VALID,0,VALID,94.4853,VALID,0,VALID,19.5187,VALID,90,VALID,0.996875,
2004-02-11, 03:06:00,VALID,919.382,VALID,0,VALID,94.6582,VALID,-0.0169808,VALID,19.5291,VALID,96,VALID,1.00509,
2004-02-11, 03:07:00,VALID,919.389,VALID,0,VALID,94.7053,VALID,-0.0169808,VALID,19.5157,VALID,111,VALID,1.07344,
2004-02-11, 03:08:00,VALID,919.377,VALID,0,VALID,94.6671,VALID,0.0169808,VALID,19.5254,VALID,111,VALID,1.23819,
2004-02-11, 03:09:00,VALID,919.371,VALID,0,VALID,94.4421,VALID,0,VALID,19.5574,VALID,114,VALID,1.34557,
2004-02-11, 03:10:00,VALID,919.36,VALID,0,VALID,94.1343,VALID,0.0169808,VALID,19.6063,VALID,116,VALID,1.14596,
2004-02-11, 03:11:00,VALID,919.355,VALID,0,VALID,93.8609,VALID,0,VALID,19.6411,VALID,109,VALID,1.08612,
2004-02-11, 03:12:00,VALID,919.327,VALID,0,VALID,93.5888,VALID,-0.0169808,VALID,19.693,VALID,106,VALID,0.820313,
2004-02-11, 03:13:00,VALID,919.305,VALID,0,VALID,93.3981,VALID,0,VALID,19.7251,VALID,104,VALID,0.870916,
2004-02-11, 03:14:00,VALID,919.278,VALID,0,VALID,93.1387,VALID,0.0169808,VALID,19.7671,VALID,94,VALID,0.928961,
2004-02-11, 03:15:00,VALID,919.282,VALID,0,VALID,92.8818,VALID,0,VALID,19.809,VALID,87,VALID,0.971726,
2004-02-11, 03:16:00,VALID,919.289,VALID,0,VALID,92.5601,VALID,0.0169808,VALID,19.854,VALID,79,VALID,0.853516,
2004-02-11, 03:17:00,VALID,919.289,VALID,0,VALID,92.3121,VALID,0.0509425,VALID,19.9059,VALID,77,VALID,1.15225,
2004-02-11, 03:18:00,VALID,919.308,VALID,0,VALID,92.0883,VALID,0,VALID,19.938,VALID,65,VALID,0.847049,
2004-02-11, 03:19:00,VALID,919.324,VALID,0,VALID,92.0082,VALID,0.0679233,VALID,19.9708,VALID,10,VALID,0.501776,
2004-02-11, 03:20:00,VALID,919.333,VALID,0,VALID,92.0286,VALID,0.0169808,VALID,19.9576,VALID,7,VALID,0.290838,
2004-02-11, 03:21:00,VALID,919.337,VALID,0,VALID,92.1023,VALID,0,VALID,19.9414,VALID,19,VALID,0.361285,
2004-02-11, 03:22:00,VALID,919.343,VALID,0,VALID,92.2346,VALID,0.0169808,VALID,19.9186,VALID,18,VALID,0.401486,
2004-02-11, 03:23:00,VALID,919.342,VALID,0,VALID,92.3452,VALID,0,VALID,19.9029,VALID,31,VALID,0.613186,
2004-02-11, 03:24:00,VALID,919.347,VALID,0,VALID,92.4685,VALID,0.0339617,VALID,19.8731,VALID,28,VALID,0.652902,
2004-02-11, 03:25:00,VALID,919.351,VALID,0,VALID,92.6771,VALID,0,VALID,19.8478,VALID,29,VALID,0.717416,
2004-02-11, 03:26:00,VALID,919.348,VALID,0,VALID,92.8767,VALID,0.0339617,VALID,19.822,VALID,34,VALID,0.36756,
2004-02-11, 03:27:00,VALID,919.338,VALID,0,VALID,92.9912,VALID,0.0169808,VALID,19.7859,VALID,34,VALID,0.197917,
2004-02-11, 03:28:00,VALID,919.327,VALID,0,VALID,93.1527,VALID,0.0509425,VALID,19.7671,VALID,34,VALID,0.21689,
2004-02-11, 03:29:00,VALID,919.298,VALID,0,VALID,93.2455,VALID,-0.0679233,VALID,19.7422,VALID,34,VALID,0.151786,
2004-02-11, 03:30:00,VALID,919.296,VALID,0,VALID,93.4311,VALID,-0.101885,VALID,19.7136,VALID,70,VALID,0.716406,
2004-02-11, 03:31:00,VALID,919.289,VALID,0,VALID,93.6168,VALID,-0.0509425,VALID,19.6811,VALID,87,VALID,0.720898,
2004-02-11, 03:32:00,VALID,919.269,VALID,0,VALID,93.7948,VALID,-0.0509425,VALID,19.6421,VALID,94,VALID,0.903888,
2004-02-11, 03:33:00,VALID,919.25,VALID,0,VALID,94.0097,VALID,-0.0509425,VALID,19.6133,VALID,96,VALID,0.829241,
2004-02-11, 03:34:00,VALID,919.245,VALID,0,VALID,94.2551,VALID,-0.0339617,VALID,19.5609,VALID,87,VALID,0.997093,
2004-02-11, 03:35:00,VALID,919.227,VALID,0,VALID,94.4522,VALID,-0.0849042,VALID,19.5388,VALID,84,VALID,0.827363,
2004-02-11, 03:36:00,VALID,919.208,VALID,0,VALID,94.5057,VALID,-0.101885,VALID,19.5032,VALID,69,VALID,0.858665,
2004-02-11, 03:37:00,VALID,919.206,VALID,0,VALID,94.5909,VALID,-0.0509425,VALID,19.4901,VALID,60,VALID,1.03223,
2004-02-11, 03:38:00,VALID,919.179,VALID,0,VALID,94.526,VALID,-0.0849042,VALID,19.4608,VALID,51,VALID,1.03688,